Home > Weather > Grand Prairie > Past weeks

Flag for U.S.A. Weather for the Past 2 Weeks in Grand Prairie, Texas, U.S.A.

Now
49 °F

Clear.


Feels Like: 48 °F
Forecast: 37 / 60 °F
Wind: 3 mph from Northwest

Location: Grand Prairie Municipal Airport

Current Time: Feb 8, 2016 at 10:27:12 PM

Latest Report: Feb 8, 2016 at 9:15 PM


Visibility: 10 mi

Pressure: 30.30 "Hg

Humidity: 16%

Dew point: 4 °F

Location of Grand PrairieLocation

Historic Weather in Grand Prairie — Graph

°F

Grand Prairie Temperature Yesterday

Maximum temperature yesterday: 64 °F (at 4:50 PM)
Minimum temperature yesterday: 35 °F (at 5:15 AM)
Average temperature yesterday: 46 °F

High & Low Weather Summary for the Past Weeks

 TemperatureHumidityPressure
High75 °F (Jan 29, 1:50 PM)100% (Jan 31, 3:35 AM)30.53 "Hg (Jan 31, 3:35 AM)
Low32 °F (Feb 4, 7:50 AM)13% (Feb 8, 3:50 PM)29.53 "Hg (Feb 1, 9:55 PM)
Average50 °F53%30.10 "Hg
* Reported Jan 24 8:15 PM — Feb 8 8:55 PM, Grand Prairie, Weather by CustomWeather, © 2016

Note: Actual official high and low records may vary slightly from our data, if they occured in-between our weather recording intervals... More about our weather records

Advertising

Grand Prairie Weather History for the Previous 24 Hours

 ConditionsComfort  
Time TempWeatherWind HumidityBarometerVisibility
8:55 PM
Mon, Feb 8
49 °FClear.5 mph15%30.30 "Hg10 mi
8:15 PM51 °FClear.5 mph14%30.29 "Hg10 mi
7:55 PM52 °FClear.13 mph13%30.29 "Hg10 mi
7:15 PM52 °FClear.5 mph15%30.29 "Hg10 mi
4:50 PM57 °FSunny.14 mph13%30.27 "Hg10 mi
3:50 PM57 °FSunny.13 mph13%30.27 "Hg10 mi
2:50 PM55 °FSunny.14 mph15%30.28 "Hg10 mi
1:50 PM55 °FSunny.14 mph15%30.30 "Hg10 mi
12:50 PM54 °FSunny.18 mph18%30.33 "Hg10 mi
11:50 AM52 °FSunny.15 mph20%30.37 "Hg10 mi
9:50 AM46 °FSunny.12 mph27%30.40 "Hg10 mi
8:50 AM45 °FSunny.12 mph31%30.38 "Hg10 mi
7:50 AM45 °FSunny.8 mph39%30.36 "Hg10 mi
5:35 AM45 °FClear.10 mph31%30.32 "Hg10 mi
5:15 AM45 °FClear.8 mph31%30.32 "Hg10 mi
4:55 AM45 °FClear.9 mph32%30.32 "Hg10 mi
4:35 AM45 °FQuite cool.7 mph33%30.31 "Hg10 mi
4:15 AM45 °FClear.6 mph33%30.31 "Hg10 mi
3:55 AM46 °FClear.7 mph33%30.31 "Hg10 mi
3:35 AM46 °FClear.6 mph33%30.31 "Hg10 mi
3:15 AM47 °FClear.5 mph31%30.31 "Hg10 mi
2:55 AM48 °FClear.7 mph31%30.31 "Hg10 mi
2:35 AM48 °FClear.8 mph33%30.31 "Hg10 mi
2:15 AM48 °FClear.8 mph33%30.30 "Hg10 mi
1:55 AM49 °FClear.9 mph32%30.30 "Hg10 mi
1:35 AM50 °FClear.9 mph32%30.30 "Hg10 mi
1:15 AM50 °FClear.12 mph34%30.30 "Hg10 mi
12:55 AM51 °FClear.9 mph36%30.30 "Hg10 mi
12:35 AM51 °FClear.8 mph37%30.30 "Hg10 mi
12:15 AM51 °FClear.9 mph39%30.29 "Hg10 mi
11:55 PM
Sun, Feb 7
51 °FClear.8 mph40%30.29 "Hg10 mi
11:35 PM51 °FClear.7 mph42%30.28 "Hg10 mi
11:15 PM52 °FClear.7 mph43%30.27 "Hg10 mi
10:55 PM52 °FClear.6 mph43%30.27 "Hg10 mi
10:15 PM54 °FClear.6 mph39%30.24 "Hg10 mi
Weather by CustomWeather, © 2016

See weather overviewHow to use our weather pages